Regional Weather Roundup
Issued by NWS

Home | Current Version | Previous Version | Text Only | Print | Product List | Glossary Off
Versions: 1 2 3 4 5 6 7 8 9 10 11 12 13 14 15 16 17 18 19 20 21 22 23 24 25 26 27 28 29 30 31 32 33 34 35 36 37 38 39 40 41 42 43 44 45 46 47 48 49 50

000
ASUS43 KLMK 240802
RWRKY
KENTUCKY REGIONAL WEATHER ROUNDUP
NATIONAL WEATHER SERVICE LOUISVILLE KY
300 AM EST FRI FEB 24 2017

NOTE "FAIR" INDICATES FEW OR NO CLOUDS BELOW 12,000 FEET
WITH NO SIGNIFICANT WEATHER AND/OR OBSTRUCTIONS TO VISIBILITY.

KYZ001>023-026-027-061>063-070>075-240900-
WESTERN AND SOUTH CENTRAL KENTUCKY

CITY           SKY/WX    TMP DP  RH WIND       PRES   REMARKS
PADUCAH        PTCLDY    65  56  72 S9        29.63R
HENDERSON      CLOUDY    63  54  72 S13       29.63S
OWENSBORO      PTCLDY    63  55  75 S14       29.66F
HOPKINSVILLE   CLEAR     65  56  71 S15G23    29.69S
BOWLING GREEN  CLOUDY    62  55  77 S9        29.73F
GLASGOW        NOT AVBL
$$

KYZ024-025-028>034-038-045-046-053-240900-
NORTH CENTRAL KENTUCKY

CITY           SKY/WX    TMP DP  RH WIND       PRES   REMARKS
LOUISVILLE/SDF CLOUDY    63  53  70 S8        29.70F
LOUISVILLE/LOU MOCLDY    63  53  70 S6        29.71S
FORT KNOX      MOCLDY    61  54  77 S13       29.70S
$$

KYZ035>037-039>044-047>052-055>060-089>105-240900-
NORTHEAST KENTUCKY

CITY           SKY/WX    TMP DP  RH WIND       PRES   REMARKS
LEXINGTON      CLEAR     60  52  74 S12       29.76S
COVINGTON      MOCLDY    56  53  90 S8        29.72S
FRANKFORT      PTCLDY    59  50  72 S7        29.73S
$$

KYZ054-064>069-076>088-106>120-240900-
SOUTHEAST KENTUCKY

CITY           SKY/WX    TMP DP  RH WIND       PRES   REMARKS
JACKSON        MOCLDY    60  50  69 S5        29.81S
LONDON         CLOUDY    56  49  77 S3        29.80S
SOMERSET       CLEAR     59  50  72 S5        29.80S
MIDDLESBORO    PTCLDY    47  47 100 CALM      29.84F
MONTICELLO     SUNNY     59  51  75 E8        29.80S
$$





USA.gov is the U.S. government's official web portal to all federal, state and local government web resources and services.